Location: Killam
(52.7910°N, 111.8608°W)
Time: 18:23:52
(UTC+00:00)

ITAMSAT 1 - Visible Passes

Search period start: 07 March 2026 00:00
Search period end: 17 March 2026 00:00
Orbit: 781 x 794 km, 98.7° (Epoch: 7 March)

Date Brightness Start Highest point End Pass type
(mag) Time Alt. Az. Time Alt. Az. Time Alt. Az.
7 Mar 8.6 03:22:25 28° ENE 03:22:41 28° ENE 03:27:02 10° N visible
7 Mar 8.6 05:03:04 45° NW 05:03:04 45° NW 05:06:56 10° NNW visible
8 Mar 9.1 02:51:35 17° ENE 02:52:41 18° NE 02:56:08 10° N visible
8 Mar 7.9 04:32:14 64° N 04:32:14 64° N 04:36:37 10° NNW visible
8 Mar 10.1 06:12:54 16° WNW 06:12:54 16° WNW 06:14:56 10° NW visible
9 Mar 9.6 02:20:56 10° ENE 02:22:48 12° NE 02:24:42 10° NNE visible
9 Mar 7.9 04:01:24 50° NE 04:01:24 50° NE 04:06:09 10° N visible
9 Mar 9.5 05:42:03 26° WNW 05:42:03 26° WNW 05:45:19 10° NNW visible
10 Mar 8.5 03:30:34 31° ENE 03:30:59 32° ENE 03:35:31 10° N visible
10 Mar 8.6 05:11:13 44° WNW 05:11:13 44° WNW 05:15:17 10° NNW visible
11 Mar 9.0 02:59:44 19° ENE 03:00:58 21° NE 03:04:42 10° N visible
11 Mar 7.8 04:40:23 71° NNW 04:40:23 71° NNW 04:45:01 10° NNW visible
11 Mar 10.1 06:21:02 14° WNW 06:21:02 14° WNW 06:22:59 10° NW visible
12 Mar 9.5 02:28:54 11° ENE 02:31:03 13° NE 02:33:29 10° NNE visible
12 Mar 7.7 04:09:33 58° ENE 04:09:33 58° ENE 04:14:35 10° N visible
12 Mar 9.5 05:50:12 24° WNW 05:50:12 24° WNW 05:53:34 10° NW visible
13 Mar 8.3 03:38:43 35° ENE 03:39:18 36° ENE 03:44:00 10° N visible
13 Mar 8.7 05:19:22 41° WNW 05:19:22 41° WNW 05:23:37 10° NNW visible
14 Mar 8.9 03:07:53 21° ENE 03:09:15 23° NE 03:13:15 10° N visible
14 Mar 7.8 04:48:32 71° WNW 04:48:32 71° WNW 04:53:24 10° NNW visible
14 Mar 10.2 06:29:11 13° WNW 06:29:11 13° WNW 06:30:53 10° WNW visible
15 Mar 9.4 02:37:02 12° ENE 02:39:18 15° NE 02:42:11 10° NNE visible
15 Mar 7.5 04:17:42 67° E 04:17:50 67° ENE 04:23:00 10° NNW visible
15 Mar 9.6 05:58:21 22° W 05:58:21 22° W 06:01:47 10° NW visible
16 Mar 8.1 03:46:52 38° E 03:47:37 41° ENE 03:52:28 10° N visible
16 Mar 8.8 05:27:31 37° W 05:27:31 37° W 05:31:55 10° NNW visible
